Location: Boiro
(42.6475°N, 8.8834°W)
Time: 01:41:14
(UTC+01:00)

Transit 2A Rocket - Pass Details

Date: 30 November 2021
Orbit: 584 x 917 km, 66.7° (Epoch: 23 January)

Event Time Altitude Azimuth Distance (km) Brightness Sun altitude
Rises 18:51:20 0° 328° (NNW) 3,561 8.6 -8.8°
Reaches altitude 10° 18:53:54 10° 329° (NNW) 2,605 7.9 -9.2°
Maximum altitude 19:00:02 90° 262° (W) 888 5.3 -10.3°
Drops below altitude 10° 19:05:46 10° 151° (SSE) 2,446 7.5 -11.3°
Sets 19:08:07 0° 151° (SSE) 3,331 8.2 -11.7°
